Location: Northcutt
(34.7304°N, 84.4305°W)
Time: 11:06:46
(UTC+00:00)

A-11 Canister half - Pass Details

Date: 11 October 2022
Orbit: 1524 x 1685 km, 47.3° (Epoch: 30 November)

Event Time Altitude Azimuth Distance (km) Brightness Sun altitude
Rises 16:10:23 0° 197° (SSW) 4,730 12.0 44.6°
Reaches altitude 10° 16:13:55 10° 187° (S) 3,728 11.8 44.9°
Maximum altitude 16:21:49 31° 129° (SE) 2,414 11.5 45.5°
Drops below altitude 10° 16:29:36 10° 71° (ENE) 3,689 11.1 46.1°
Sets 16:33:03 0° 62° (ENE) 4,674 11.5 46.4°
